Date String (YYYY-MM-DD hh:mm:ss) UTC,Instrument flags,Ambient pressure (hPa),Sample flow (lpm),Bypass flow (lpm),Sample temperature (°C),Ambient temperature (°C),ASC tube jacket temperature (°C),LED temperature (°C),Box temperature (°C),Sample RH (%),Span deviation,Mass concentration (μg/m³),Mass concentration (μg/m³),Mass concentration (μg/m³)
DateTimeUTC,F1_M11,P_M11,Q1_M11,Q2_M11,T1_M11,T2_M11,T3_M11,T4_M11,T5_M11,U1_M11,ZSPAN_M11,X0_M11,X2_M11,X1_M11
2022-12-16 18:00:00,,0824.2,5.04,0.00,21.8,20.3,00.0,30.8,23.3,03.0,0000.0,0002.82,0001.30,0001.13
2022-12-16 18:01:00,,0824.2,4.97,0.00,21.8,20.3,00.0,30.8,23.3,03.0,0000.0,0003.13,0001.27,0001.12
2022-12-16 18:02:00,,0824.2,4.97,0.00,21.8,20.2,00.0,30.7,23.3,03.1,0000.0,0003.13,0001.26,0001.12
2022-12-16 18:03:00,,0824.2,5.04,0.00,21.8,20.2,00.0,30.7,23.2,03.1,0000.0,0003.22,0001.27,0001.12
2022-12-16 18:04:00,,0824.1,4.97,0.00,21.7,20.2,00.0,30.7,23.2,03.1,0000.0,0003.26,0001.30,0001.12
2022-12-16 18:05:00,,0824.2,5.04,0.00,21.8,21.0,00.0,30.7,23.4,03.0,0000.0,0003.28,0001.30,0001.12
2022-12-16 18:06:00,,0824.2,4.96,0.00,21.9,22.3,00.0,30.6,23.9,02.9,0000.0,0003.29,0001.30,0001.12
2022-12-16 18:07:00,,0824.1,5.01,0.00,22.0,22.6,00.0,30.7,24.0,03.0,0000.0,0003.26,0001.29,0001.12
2022-12-16 18:08:00,,0824.1,5.00,0.00,22.1,22.1,00.0,30.8,24.0,03.0,0000.0,0003.35,0001.32,0001.12
2022-12-16 18:09:00,,0824.1,4.99,0.00,22.0,21.7,00.0,30.8,23.9,02.9,0000.0,0003.32,0001.32,0001.12
2022-12-16 18:10:00,,0824.1,5.03,0.00,22.1,21.4,00.0,30.8,23.8,02.9,0000.0,0003.30,0001.34,0001.14
2022-12-16 18:11:00,,0824.2,4.96,0.00,22.0,21.1,00.0,30.8,23.8,02.9,0000.0,0002.34,0001.33,0001.14
2022-12-16 18:12:00,,0824.1,5.05,0.00,22.0,20.9,00.0,30.8,23.7,02.9,0000.0,0001.99,0001.34,0001.13
2022-12-16 18:13:00,,0824.1,4.97,0.00,22.0,20.8,00.0,30.8,23.6,02.9,0000.0,0001.99,0001.35,0001.14
2022-12-16 18:14:00,,0824.1,5.01,0.00,22.0,20.7,00.0,30.8,23.5,03.0,0000.0,0001.89,0001.34,0001.15
2022-12-16 18:15:00,,0824.1,5.01,0.00,21.9,20.6,00.0,30.8,23.5,03.1,0000.0,0001.86,0001.33,0001.16
2022-12-16 18:16:00,,0824.1,4.97,0.00,21.9,20.5,00.0,30.8,23.5,03.0,0000.0,0001.85,0001.33,0001.17
2022-12-16 18:17:00,,0824.1,5.05,0.00,21.9,20.5,00.0,30.8,23.5,02.9,0000.0,0001.90,0001.35,0001.17
2022-12-16 18:18:00,,0824.1,4.97,0.00,21.9,20.4,00.0,30.8,23.4,02.9,0000.0,0002.02,0001.40,0001.19
2022-12-16 18:19:00,,0824.1,5.02,0.00,21.8,20.3,00.0,30.8,23.3,03.0,0000.0,0001.99,0001.39,0001.19
2022-12-16 18:20:00,,0824.2,4.99,0.00,21.8,20.3,00.0,30.8,23.3,03.0,0000.0,0001.91,0001.38,0001.20
2022-12-16 18:21:00,,0824.1,4.97,0.00,21.8,20.2,00.0,30.8,23.2,03.0,0000.0,0001.85,0001.36,0001.20
2022-12-16 18:22:00,,0824.1,5.04,0.00,21.8,20.3,00.0,30.7,23.3,03.1,0000.0,0001.82,0001.34,0001.20
2022-12-16 18:23:00,,0824.1,4.97,0.00,21.9,21.4,00.0,30.7,23.7,03.1,0000.0,0001.79,0001.35,0001.21
2022-12-16 18:24:00,,0824.1,5.01,0.00,22.0,22.4,00.0,30.7,24.0,03.0,0000.0,0001.76,0001.35,0001.22
2022-12-16 18:25:00,,0824.2,5.00,0.00,22.1,22.2,00.0,30.8,24.0,02.9,0000.0,0001.79,0001.36,0001.23
2022-12-16 18:26:00,,0824.2,4.99,0.00,22.1,21.9,00.0,30.8,23.9,03.0,0000.0,0001.81,0001.36,0001.23
2022-12-16 18:27:00,,0824.1,4.99,0.00,22.1,21.6,00.0,30.8,23.9,03.0,0000.0,0001.86,0001.37,0001.23
2022-12-16 18:28:00,,0824.1,5.03,0.00,22.1,21.4,00.0,30.8,23.9,03.0,0000.0,0001.79,0001.36,0001.23
2022-12-16 18:29:00,,0824.1,4.98,0.00,22.1,21.2,00.0,30.8,23.8,02.9,0000.0,0001.75,0001.35,0001.23
2022-12-16 18:30:00,,0824.1,4.98,0.00,22.1,21.1,00.0,30.8,23.7,03.0,0000.0,0001.81,0001.38,0001.24
2022-12-16 18:31:00,,0824.1,5.05,0.00,22.0,20.9,00.0,30.9,23.7,02.9,0000.0,0001.90,0001.40,0001.25
2022-12-16 18:32:00,,0824.1,4.98,0.00,22.0,20.8,00.0,30.9,23.7,03.0,0000.0,0001.96,0001.43,0001.25
2022-12-16 18:33:00,,0824.1,4.98,0.00,22.0,20.7,00.0,30.8,23.7,02.9,0000.0,0002.01,0001.46,0001.27
2022-12-16 18:34:00,,0824.1,5.04,0.00,22.0,20.7,00.0,30.8,23.7,03.0,0000.0,0002.09,0001.50,0001.28
2022-12-16 18:35:00,,0824.1,4.97,0.00,22.0,20.6,00.0,30.8,23.6,03.1,0000.0,0002.12,0001.50,0001.27
2022-12-16 18:36:00,,0824.1,5.03,0.00,22.0,20.6,00.0,30.8,23.5,03.0,0000.0,0002.14,0001.51,0001.27
2022-12-16 18:37:00,,0824.0,4.99,0.00,21.9,20.5,00.0,30.8,23.5,03.0,0000.0,0002.17,0001.52,0001.27
2022-12-16 18:38:00,,0824.0,4.97,0.00,21.9,20.5,00.0,30.8,23.4,03.0,0000.0,0002.14,0001.52,0001.28
2022-12-16 18:39:00,,0824.0,5.05,0.00,21.9,20.4,00.0,30.8,23.4,03.0,0000.0,0002.24,0001.56,0001.29
2022-12-16 18:40:00,,0824.1,4.97,0.00,21.9,20.4,00.0,30.8,23.4,03.1,0000.0,0002.22,0001.54,0001.29
2022-12-16 18:41:00,,0824.1,5.04,0.00,21.9,20.4,00.0,30.8,23.4,03.1,0000.0,0002.19,0001.53,0001.28
2022-12-16 18:42:00,,0824.0,4.98,0.00,21.9,20.4,00.0,30.8,23.4,03.0,0000.0,0002.05,0001.49,0001.28
2022-12-16 18:43:00,,0824.1,4.98,0.00,21.8,20.3,00.0,30.8,23.4,03.1,0000.0,0002.03,0001.48,0001.28
2022-12-16 18:44:00,,0824.0,5.05,0.00,21.8,20.4,00.0,30.7,23.4,03.1,0000.0,0002.02,0001.48,0001.28
2022-12-16 18:45:00,,0824.1,4.97,0.00,21.8,20.4,00.0,30.7,23.4,03.1,0000.0,0002.05,0001.48,0001.28
2022-12-16 18:46:00,,0824.0,5.06,0.00,21.9,21.1,00.0,30.7,23.6,03.1,0000.0,0002.11,0001.51,0001.28
2022-12-16 18:47:00,,0824.0,4.95,0.00,22.0,22.4,00.0,30.7,24.0,03.2,0000.0,0002.27,0001.57,0001.28
2022-12-16 18:48:00,,0824.0,5.00,0.00,22.1,22.7,00.0,30.7,24.2,03.2,0000.0,0002.31,0001.60,0001.28
2022-12-16 18:49:00,,0824.0,5.02,0.00,22.2,22.4,00.0,30.8,24.2,03.1,0000.0,0002.37,0001.62,0001.29
2022-12-16 18:50:00,,0823.9,5.00,0.00,22.2,22.0,00.0,30.9,24.1,03.1,0000.0,0002.31,0001.60,0001.29
2022-12-16 18:51:00,,0824.0,5.02,0.00,22.2,21.7,00.0,30.9,24.0,03.1,0000.0,0002.34,0001.62,0001.30
2022-12-16 18:52:00,,0823.9,4.96,0.00,22.2,21.5,00.0,30.9,23.9,03.0,0000.0,0002.31,0001.62,0001.30
2022-12-16 18:53:00,,0824.0,5.05,0.00,22.2,21.3,00.0,30.9,23.8,03.0,0000.0,0002.32,0001.63,0001.32
2022-12-16 18:54:00,,0824.0,4.97,0.00,22.1,21.1,00.0,30.9,23.7,03.1,0000.0,0002.32,0001.63,0001.32
2022-12-16 18:55:00,,0824.0,4.97,0.00,22.1,20.9,00.0,30.9,23.7,03.1,0000.0,0002.41,0001.67,0001.33
2022-12-16 18:56:00,,0824.0,5.05,0.00,22.1,20.8,00.0,30.9,23.6,03.1,0000.0,0002.38,0001.66,0001.35
2022-12-16 18:57:00,,0824.0,4.98,0.00,22.0,20.7,00.0,30.9,23.5,03.1,0000.0,0002.32,0001.64,0001.36
2022-12-16 18:58:00,,0824.0,5.03,0.00,22.0,20.6,00.0,30.9,23.5,03.1,0000.0,0002.13,0001.57,0001.36
2022-12-16 18:59:00,,0824.0,5.01,0.00,22.0,20.6,00.0,30.9,23.5,03.2,0000.0,0002.00,0001.53,0001.36
